Location: Dodgeville, WI 53533, USA
(43.0344°N, 90.0900°W)
Time: 12:35:42
(UTC-05:00)

Envisat - Visible Passes

Search period start: 18 October 2018 00:00
Search period end: 28 October 2018 00:00
Orbit: 764 x 766 km, 98.2° (Epoch: 18 October)

Date Brightness Start Highest point End Pass type
(mag) Time Alt. Az. Time Alt. Az. Time Alt. Az.
18 Oct 3.1 19:30:59 10° SSE 19:35:54 54° ENE 19:40:51 10° N visible
18 Oct 5.5 21:11:43 10° SW 21:15:14 19° W 21:18:47 10° NW visible
19 Oct 4.0 18:55:16 10° ESE 18:59:25 26° ENE 19:03:34 10° N visible
19 Oct 4.2 20:33:28 10° SSW 20:38:13 40° W 20:43:01 10° NNW visible
20 Oct 2.9 19:56:19 10° SSE 20:01:24 88° WSW 20:06:31 10° NNW visible
20 Oct 6.0 21:40:27 10° W 21:41:08 10° W 21:41:48 10° W visible
21 Oct 3.3 19:20:01 10° SE 19:24:46 43° ENE 19:29:34 10° N visible
21 Oct 5.1 20:59:55 10° SW 21:03:57 23° W 21:08:00 10° NW visible
22 Oct 4.2 18:44:35 10° ESE 18:48:20 21° ENE 18:52:06 10° NNE visible
22 Oct 3.8 20:22:04 10° S 20:26:59 51° W 20:31:57 10° NNW visible
23 Oct 2.9 19:45:10 10° SSE 19:50:14 74° ENE 19:55:19 10° N visible
23 Oct 5.8 21:27:21 10° WSW 21:29:48 13° W 21:32:14 10° WNW visible
24 Oct 3.6 19:09:06 10° SE 19:13:40 35° ENE 19:18:13 10° N visible
24 Oct 4.8 20:48:17 10° SSW 20:52:41 29° W 20:57:06 10° NW visible
25 Oct 4.4 18:34:02 10° ESE 18:37:17 17° ENE 18:40:32 10° NNE visible
25 Oct 3.3 20:10:45 10° S 20:15:47 65° WSW 20:20:51 10° NNW visible
26 Oct 3.0 19:34:06 10° SSE 19:39:04 59° ENE 19:44:04 10° N visible
26 Oct 5.6 21:15:12 10° SW 21:18:28 17° W 21:21:46 10° NW visible
27 Oct 3.8 18:58:17 10° ESE 19:02:33 28° ENE 19:06:51 10° N visible
27 Oct 4.4 20:36:46 10° SSW 20:41:26 37° W 20:46:08 10° NNW visible
